Weather History for Galesburg, IL

Change the Weather History Date:

Saturday, February 11, 2012

  Actual Average Record
Temperature  
Mean Temperature 20 °F -  
Max Temperature 27 °F 32 °F 57 °F (1987)
Min Temperature 12 °F 16 °F -19 °F (2014)
Degree Days  
Heating Degree Days 46    
Moisture  
Dew Point 0 °F    
Average Humidity 44    
Maximum Humidity 65    
Minimum Humidity 23    
Precipitation  
Precipitation 0.00 in - - ()
Sea Level Pressure  
Sea Level Pressure 30.45 in    
Wind  
Wind Speed 15 mph (WNW)    
Max Wind Speed 25 mph    
Max Gust Speed 34 mph    
Visibility 10 miles    
Events      
Averages and records for this station are not official NWS values.
T = Trace of Precipitation, MM = Missing Value Source: NWS Daily Summary

Daily Weather History Graph

Daily Weather History Graph

Search for Another Location

Airport:

Trip Planner

Search our weather history database for the weather conditions in past years. The results will help you decide how hot, cold, wet, or windy it might be!

Date:

Astronomy

Feb. 11, 2012 Rise Set
Actual Time 7:01 AM CST 5:30 PM CST
Civil Twilight 6:33 AM CST 5:59 PM CST
Nautical Twilight 6:00 AM CST 6:31 PM CST
Astronomical Twilight 5:29 AM CST 7:03 PM CST
Moon 10:21 PM CST (2/11) 8:41 AM CST (2/11)
Length of Visible Light 11h 25m
Length of Day
10h 29m
Waning Gibbous, 82% of the Moon is Illuminated
Feb 11
Waning Gibbous
Feb 14
Last Quarter
Feb 21
New
Feb 29
First Quarter
Mar 8
Full

Hourly Weather History & Observations

Time (CST) Temp. Windchill Dew Point Humidity Pressure Visibility Wind Dir Wind Speed Gust Speed Precip Events Conditions
12:15 AM 19.0 °F 3.2 °F 1.9 °F 47% 30.33 in 10.0 mi NNW 19.6 mph 27.6 mph N/A   Overcast
12:35 AM 18.1 °F 4.4 °F 3.0 °F 52% 30.33 in 10.0 mi NNW 13.8 mph - N/A   Mostly Cloudy
12:55 AM 17.2 °F 2.7 °F 3.9 °F 56% 30.34 in 10.0 mi NNW 15.0 mph - N/A   Clear
1:15 AM 17.1 °F 3.6 °F 4.5 °F 58% 30.35 in 10.0 mi NW 12.7 mph - N/A   Clear
1:35 AM 16.9 °F 2.8 °F 4.8 °F 59% 30.36 in 10.0 mi NW 13.8 mph 19.6 mph N/A   Clear
1:55 AM 16.7 °F 2.6 °F 4.3 °F 58% 30.36 in 10.0 mi NW 13.8 mph - N/A   Clear
2:15 AM 16.0 °F 2.9 °F 4.1 °F 60% 30.37 in 10.0 mi NW 11.5 mph - N/A   Clear
2:35 AM 15.8 °F 2.1 °F 3.7 °F 59% 30.38 in 10.0 mi NW 12.7 mph - N/A   Clear
2:55 AM 15.6 °F 1.8 °F 3.2 °F 58% 30.38 in 10.0 mi NW 12.7 mph - N/A   Clear
3:15 AM 15.1 °F 3.3 °F 2.3 °F 57% 30.38 in 10.0 mi NW 9.2 mph - N/A   Clear
3:35 AM 14.5 °F 2.7 °F 3.0 °F 60% 30.39 in 10.0 mi WNW 9.2 mph - N/A   Clear
3:55 AM 14.0 °F 0.5 °F 3.2 °F 62% 30.39 in 10.0 mi WNW 11.5 mph 17.3 mph N/A   Clear
4:15 AM 14.2 °F 2.2 °F 2.3 °F 59% 30.40 in 10.0 mi WNW 9.2 mph - N/A   Clear
4:35 AM 13.5 °F 0.5 °F 3.6 °F 65% 30.41 in 10.0 mi WNW 10.4 mph - N/A   Clear
4:55 AM 13.1 °F -0.7 °F 3.2 °F 65% 30.41 in 10.0 mi WNW 11.5 mph - N/A   Clear
5:15 AM 13.1 °F -0.7 °F 1.8 °F 61% 30.42 in 10.0 mi WNW 11.5 mph 17.3 mph N/A   Clear
5:35 AM 13.1 °F -0.7 °F 0.7 °F 58% 30.43 in 10.0 mi WNW 11.5 mph 16.1 mph N/A   Clear
5:55 AM 12.7 °F 0.4 °F 0.5 °F 58% 30.43 in 10.0 mi WNW 9.2 mph - N/A   Clear
6:15 AM 12.6 °F -2.0 °F 0.5 °F 59% 30.44 in 10.0 mi WNW 12.7 mph - N/A   Clear
6:35 AM 12.6 °F -1.4 °F 0.1 °F 58% 30.45 in 10.0 mi WNW 11.5 mph 16.1 mph N/A   Clear
6:55 AM 12.2 °F -1.0 °F -0.4 °F 57% 30.45 in 10.0 mi WNW 10.4 mph - N/A   Clear
7:15 AM 12.2 °F -1.0 °F -0.4 °F 57% 30.46 in 10.0 mi WNW 10.4 mph - N/A   Clear
7:35 AM 13.1 °F -0.7 °F 0.1 °F 56% 30.47 in 10.0 mi WNW 11.5 mph - N/A   Clear
7:55 AM 13.6 °F -1.9 °F -0.4 °F 54% 30.47 in 10.0 mi WNW 15.0 mph - N/A   Clear
8:15 AM 14.7 °F -1.6 °F -0.6 °F 51% 30.48 in 10.0 mi WNW 17.3 mph - N/A   Clear
8:35 AM 15.4 °F -0.1 °F -1.3 °F 48% 30.49 in 10.0 mi WNW 16.1 mph - N/A   Clear
8:55 AM 16.2 °F 0.3 °F -1.7 °F 45% 30.49 in 10.0 mi WNW 17.3 mph 24.2 mph N/A   Clear
9:15 AM 16.9 °F 1.2 °F -2.9 °F 42% 30.49 in 10.0 mi WNW 17.3 mph 24.2 mph N/A   Clear
9:35 AM 18.3 °F 3.6 °F -1.8 °F 41% 30.49 in 10.0 mi WNW 16.1 mph 23.0 mph N/A   Clear
9:55 AM 19.0 °F 3.6 °F -2.7 °F 38% 30.50 in 10.0 mi WNW 18.4 mph 24.2 mph N/A   Clear
10:15 AM 20.1 °F 5.4 °F -3.1 °F 36% 30.50 in 10.0 mi NW 17.3 mph 24.2 mph N/A   Clear
10:35 AM 20.5 °F 5.0 °F -4.4 °F 33% 30.50 in 10.0 mi WNW 19.6 mph 28.8 mph N/A   Clear
10:55 AM 22.1 °F 7.6 °F -2.2 °F 35% 30.50 in 10.0 mi West 18.4 mph 27.6 mph N/A   Clear
11:15 AM 22.8 °F 9.4 °F -2.4 °F 33% 30.50 in 10.0 mi WNW 16.1 mph 24.2 mph N/A   Clear
11:35 AM 23.2 °F 7.8 °F -3.1 °F 32% 30.50 in 10.0 mi West 21.9 mph 27.6 mph N/A   Clear
11:55 AM 24.3 °F 10.0 °F -3.1 °F 30% 30.49 in 10.0 mi WNW 19.6 mph 27.6 mph N/A   Clear
12:15 PM 24.8 °F 10.0 °F -1.8 °F 31% 30.49 in 10.0 mi WNW 21.9 mph 28.8 mph N/A   Clear
12:35 PM 24.8 °F 10.3 °F -0.9 °F 33% 30.48 in 10.0 mi WNW 20.7 mph 28.8 mph N/A   Clear
12:55 PM 25.0 °F 9.2 °F -1.7 °F 31% 30.47 in 10.0 mi West 25.3 mph 29.9 mph N/A   Clear
1:15 PM 25.5 °F 11.3 °F -1.1 °F 32% 30.47 in 10.0 mi West 20.7 mph 33.4 mph N/A   Clear
1:35 PM 26.2 °F 11.5 °F -1.1 °F 31% 30.46 in 10.0 mi West 23.0 mph 34.5 mph N/A   Clear
1:55 PM 26.8 °F 12.3 °F -2.6 °F 28% 30.45 in 10.0 mi West 23.0 mph 33.4 mph N/A   Clear
2:15 PM 27.3 °F 13.0 °F -4.0 °F 26% 30.45 in 10.0 mi WNW 23.0 mph 34.5 mph N/A   Clear
2:35 PM 27.0 °F 12.2 °F -3.8 °F 26% 30.45 in 10.0 mi West 24.2 mph 31.1 mph N/A   Clear
2:55 PM 27.3 °F 13.0 °F -4.7 °F 25% 30.46 in 10.0 mi West 23.0 mph 32.2 mph N/A   Clear
3:15 PM 27.3 °F 12.7 °F -5.6 °F 24% 30.46 in 10.0 mi WNW 24.2 mph 32.2 mph N/A   Clear
3:35 PM 26.8 °F 13.3 °F -6.0 °F 24% 30.46 in 10.0 mi WNW 19.6 mph 29.9 mph N/A   Clear
3:55 PM 26.6 °F 12.0 °F -5.8 °F 24% 30.46 in 10.0 mi WNW 23.0 mph 33.4 mph N/A   Clear
4:15 PM 26.6 °F 12.0 °F -6.7 °F 23% 30.46 in 10.0 mi West 23.0 mph 32.2 mph N/A   Clear
4:35 PM 26.2 °F 13.4 °F -5.8 °F 25% 30.46 in 10.0 mi WNW 17.3 mph 31.1 mph N/A   Clear
4:55 PM 25.9 °F 11.4 °F -6.5 °F 24% 30.46 in 10.0 mi West 21.9 mph 29.9 mph N/A   Clear
5:15 PM 25.2 °F 11.6 °F -5.6 °F 26% 30.46 in 10.0 mi WNW 18.4 mph 26.5 mph N/A   Clear
5:35 PM 24.4 °F 11.5 °F -3.3 °F 30% 30.46 in 10.0 mi West 16.1 mph 23.0 mph N/A   Clear
5:55 PM 23.5 °F 11.3 °F -2.2 °F 33% 30.47 in 10.0 mi West 13.8 mph 20.7 mph N/A   Clear
6:15 PM 23.4 °F 10.6 °F -2.6 °F 32% 30.47 in 10.0 mi WNW 15.0 mph - N/A   Clear
6:35 PM 23.0 °F 10.6 °F -1.8 °F 34% 30.47 in 10.0 mi West 13.8 mph - N/A   Clear
6:55 PM 22.8 °F 11.5 °F -0.9 °F 36% 30.47 in 10.0 mi West 11.5 mph - N/A   Clear
7:15 PM 22.6 °F 10.7 °F -0.2 °F 37% 30.47 in 10.0 mi WNW 12.7 mph - N/A   Clear
7:35 PM 22.5 °F 9.9 °F -0.2 °F 37% 30.47 in 10.0 mi WNW 13.8 mph - N/A   Clear
7:55 PM 22.3 °F 10.2 °F 0.1 °F 38% 30.47 in 10.0 mi West 12.7 mph - N/A   Clear
8:15 PM 21.9 °F 9.8 °F 0.5 °F 39% 30.47 in 10.0 mi West 12.7 mph 18.4 mph N/A   Clear
8:35 PM 22.1 °F 9.5 °F 0.3 °F 39% 30.48 in 10.0 mi West 13.8 mph 18.4 mph N/A   Clear
8:55 PM 21.4 °F 9.1 °F 1.0 °F 41% 30.48 in 10.0 mi West 12.7 mph - N/A   Clear
9:15 PM 20.3 °F 9.0 °F 2.1 °F 45% 30.48 in 10.0 mi West 10.4 mph - N/A   Clear
9:35 PM 19.9 °F 7.3 °F 2.7 °F 47% 30.47 in 10.0 mi West 12.7 mph - N/A   Clear
9:55 PM 19.4 °F 6.6 °F 3.2 °F 49% 30.47 in 10.0 mi West 12.7 mph - N/A   Clear
10:15 PM 18.3 °F 5.2 °F 5.4 °F 57% 30.47 in 10.0 mi West 12.7 mph - N/A   Clear
10:35 PM 18.3 °F 6.6 °F 6.8 °F 61% 30.46 in 10.0 mi West 10.4 mph - N/A   Clear
10:55 PM 18.3 °F 5.9 °F 7.5 °F 63% 30.47 in 10.0 mi West 11.5 mph - N/A   Clear
11:15 PM 17.6 °F 4.3 °F 7.5 °F 65% 30.46 in 10.0 mi West 12.7 mph - N/A   Clear
11:35 PM 17.8 °F 4.6 °F 7.7 °F 65% 30.46 in 10.0 mi West 12.7 mph - N/A   Clear
11:55 PM 17.6 °F 3.7 °F 7.5 °F 65% 30.46 in 10.0 mi West 13.8 mph - N/A   Clear